W4HSV Weather Reports


time (UTC)temp
C
wind
direction
speed
KPH
gust
KPH
rain 1hr
cm
rain 24hr
cm
rain mn
cm
humidity
%
barometer
mb
20200529024044 18 164 3.2 11.3 0.00 0.08 0.08 94 1016.7
20200529023951 18 164 4.8 11.3 0.00 0.08 0.08 93 1016.7
20200529023910 18 164 6.4 11.3 0.00 0.08 0.08 93 1016.7
20200529023738 18 164 6.4 11.3 0.00 0.08 0.08 93 1016.8
20200529023648 18 164 6.4 11.3 0.00 0.08 0.08 93 1016.7
20200529023538 18 164 6.4 8.0 0.00 0.08 0.08 93 1016.7
20200529023446 18 164 4.8 8.0 0.00 0.08 0.08 93 1016.7
20200529023404 18 164 4.8 8.0 0.00 0.08 0.08 93 1016.7
20200529023236 18 165 3.2 8.0 0.00 0.08 0.08 93 1016.7
20200529023145 18 165 4.8 9.7 0.00 0.08 0.08 93 1016.7
20200529023050 18 164 4.8 9.7 0.00 0.08 0.08 94 1016.6
20200529022938 18 164 3.2 9.7 0.00 0.08 0.08 93 1016.6
20200529022859 18 164 4.8 9.7 0.00 0.08 0.08 93 1016.6
20200529022748 18 164 4.8 9.7 0.00 0.08 0.08 93 1016.6
20200529022634 18 160 6.4 9.7 0.00 0.08 0.08 93 1016.7
20200529022543 18 160 6.4 9.7 0.00 0.08 0.08 93 1016.7
20200529022453 18 160 6.4 9.7 0.00 0.08 0.08 93 1016.7
20200529022358 18 160 8.0 9.7 0.00 0.08 0.08 93 1016.7
20200529022242 18 160 8.0 12.9 0.00 0.08 0.08 93 1016.7
20200529022149 18 160 6.4 12.9 0.00 0.08 0.08 93 1016.7
20200529022036 18 160 4.8 12.9 0.00 0.08 0.08 93 1016.7
20200529021942 18 160 3.2 12.9 0.00 0.08 0.08 93 1016.6
20200529021902 18 160 3.2 12.9 0.00 0.08 0.08 93 1016.6
20200529021750 18 160 4.8 12.9 0.00 0.08 0.08 93 1016.5
20200529021637 18 161 6.4 12.9 0.00 0.08 0.08 93 1016.5
20200529021545 18 166 6.4 12.9 0.00 0.08 0.08 93 1016.5
20200529021445 18 138 6.4 12.9 0.00 0.08 0.08 93 1016.5
20200529021359 18 155 4.8 12.9 0.00 0.08 0.08 93 1016.6
20200529021246 18 149 6.4 12.9 0.00 0.08 0.08 93 1016.6
20200529021134 18 141 6.4 12.9 0.00 0.08 0.08 93 1016.5
20200529021042 18 116 4.8 11.3 0.00 0.08 0.08 93 1016.5
20200529020952 18 130 4.8 11.3 0.00 0.08 0.08 93 1016.5
20200529020911 18 135 6.4 11.3 0.00 0.08 0.08 93 1016.5
20200529020734 18 85 3.2 6.4 0.00 0.08 0.08 93 1016.4
20200529020642 18 37 1.6 4.8 0.00 0.08 0.08 93 1016.5
20200529020552 18 33 1.6 4.8 0.00 0.08 0.08 92 1016.4
20200529020435 18 29 1.6 4.8 0.00 0.08 0.08 92 1016.4
20200529020359 18 29 1.6 4.8 0.00 0.08 0.08 92 1016.4
20200529020248 18 27 1.6 4.8 0.00 0.08 0.08 92 1016.4
20200529020135 18 28 3.2 4.8 0.00 0.08 0.08 92 1016.4
20200529020044 18 317 3.2 3.2 0.00 0.08 0.08 92 1016.3
20200529015947 18 313 1.6 3.2 0.00 0.08 0.08 92 1016.4
20200529015906 18 310 1.6 3.2 0.00 0.08 0.08 92 1016.4
20200529015755 18 308 0.0 1.6 0.00 0.08 0.08 92 1016.4
20200529015639 18 308 0.0 1.6 0.00 0.08 0.08 92 1016.5
20200529015548 18 308 0.0 1.6 0.00 0.08 0.08 92 1016.5
20200529015436 18 308 0.0 1.6 0.00 0.08 0.08 92 1016.5
20200529015359 18 308 0.0 0.0 0.00 0.08 0.08 92 1016.4
20200529015248 18 308 0.0 0.0 0.00 0.08 0.08 92 1016.5
20200529015136 18 308 0.0 0.0 0.00 0.08 0.08 91 1016.5
20200529015044 18 308 0.0 0.0 0.00 0.08 0.08 91 1016.5
20200529014952 18 308 0.0 0.0 0.00 0.08 0.08 91 1016.5
20200529014913 18 308 0.0 0.0 0.00 0.08 0.08 91 1016.5
20200529014737 18 308 0.0 0.0 0.00 0.08 0.08 91 1016.4
20200529014646 18 308 0.0 0.0 0.00 0.08 0.08 91 1016.4
20200529014556 18 308 0.0 0.0 0.00 0.08 0.08 91 1016.4
20200529014449 18 308 0.0 0.0 0.00 0.08 0.08 91 1016.3
20200529014403 18 308 0.0 0.0 0.00 0.08 0.08 91 1016.3
20200529014250 18 308 0.0 1.6 0.00 0.08 0.08 91 1016.3
20200529014138 18 308 0.0 6.4 0.00 0.08 0.08 90 1016.4
20200529014047 18 308 0.0 6.4 0.00 0.08 0.08 90 1016.3
20200529013934 18 308 0.0 6.4 0.00 0.08 0.08 90 1016.3
20200529013855 18 308 0.0 6.4 0.00 0.08 0.08 90 1016.4
20200529013742 18 308 0.0 6.4 0.00 0.08 0.08 90 1016.4
20200529013651 18 308 0.0 6.4 0.00 0.08 0.08 90 1016.4
20200529013540 18 308 0.0 6.4 0.00 0.08 0.08 90 1016.4
20200529013446 18 308 1.6 6.4 0.00 0.08 0.08 90 1016.4
20200529013411 18 308 3.2 6.4 0.00 0.08 0.08 90 1016.4
20200529013237 18 308 3.2 6.4 0.00 0.08 0.08 90 1016.5
20200529013146 18 308 3.2 6.4 0.00 0.08 0.08 90 1016.6
20200529013033 18 308 4.8 9.7 0.00 0.08 0.08 90 1016.6
20200529012940 18 310 4.8 9.7 0.00 0.08 0.08 90 1016.6
20200529012859 18 310 4.8 9.7 0.00 0.08 0.08 89 1016.6
20200529012744 18 310 1.6 9.7 0.00 0.08 0.08 89 1016.6
20200529012633 18 310 1.6 17.7 0.00 0.08 0.08 89 1016.5
20200529012542 18 310 3.2 17.7 0.00 0.08 0.08 89 1016.5
20200529012432 18 310 3.2 17.7 0.00 0.08 0.08 89 1016.4
20200529012351 18 312 4.8 17.7 0.00 0.08 0.08 88 1016.3
20200529012240 18 313 4.8 17.7 0.00 0.08 0.08 88 1016.3
20200529012150 18 310 6.4 17.7 0.00 0.08 0.08 88 1016.4
20200529012034 18 287 8.0 19.3 0.00 0.08 0.08 88 1016.4
20200529011943 19 289 9.7 20.9 0.00 0.08 0.08 88 1016.4
20200529011902 19 314 9.7 20.9 0.00 0.08 0.08 87 1016.4
20200529011751 19 299 4.8 20.9 0.00 0.08 0.08 87 1016.4
20200529011636 19 302 6.4 24.1 0.00 0.08 0.08 86 1016.4
20200529011545 19 318 9.7 24.1 0.00 0.08 0.08 86 1016.5
20200529011435 19 299 12.9 27.4 0.00 0.08 0.08 86 1016.4
20200529011357 19 293 12.9 27.4 0.00 0.08 0.08 85 1016.5
20200529011244 19 295 14.5 27.4 0.00 0.08 0.08 84 1016.5
20200529011131 20 287 12.9 33.8 0.00 0.08 0.08 83 1016.5
20200529011038 20 307 12.9 33.8 0.00 0.08 0.08 83 1016.5
20200529010947 20 293 14.5 35.4 0.00 0.08 0.08 82 1016.5
20200529010908 20 305 16.1 37.0 0.00 0.08 0.08 82 1016.5
20200529010730 20 291 20.9 45.1 0.00 0.08 0.08 80 1016.4
20200529010640 21 274 20.9 45.1 0.00 0.08 0.08 79 1016.4
20200529010548 21 283 19.3 45.1 0.00 0.08 0.08 77 1016.4
20200529010433 21 295 20.9 45.1 0.00 0.08 0.08 75 1016.4
20200529010352 21 279 19.3 45.1 0.00 0.08 0.08 74 1016.3
20200529010237 21 265 22.5 45.1 0.00 0.08 0.08 73 1016.3
20200529010146 22 359 27.4 45.1 0.00 0.08 0.08 71 1016.3
20200529010037 22 283 29.0 45.1 0.00 0.08 0.08 71 1016.2
20200529005942 22 285 29.0 45.1 0.00 0.10 0.08 70 1016.2
20200529005901 22 303 27.4 45.1 0.00 0.10 0.08 69 1016.2
20200529005748 22 306 20.9 38.6 0.00 0.10 0.08 68 1016.2
20200529005632 22 315 20.9 38.6 0.00 0.10 0.08 68 1016.1
20200529005540 22 276 20.9 38.6 0.00 0.10 0.08 68 1016.1
20200529005434 23 299 20.9 38.6 0.00 0.10 0.08 68 1016.0
20200529005351 23 359 22.5 40.2 0.00 0.10 0.08 68 1015.9
20200529005242 23 310 25.7 40.2 0.00 0.10 0.08 67 1015.8
20200529005150 23 293 24.1 40.2 0.00 0.10 0.08 67 1015.7
20200529005036 23 284 20.9 40.2 0.00 0.10 0.08 66 1015.7
20200529004946 23 287 20.9 40.2 0.00 0.10 0.08 66 1015.7
20200529004907 23 294 22.5 40.2 0.00 0.10 0.08 66 1015.7
20200529004733 24 316 32.2 40.2 0.00 0.10 0.08 65 1015.6
20200529004642 24 266 27.4 40.2 0.00 0.10 0.08 64 1015.6
20200529004552 24 289 19.3 40.2 0.00 0.10 0.08 64 1015.5
20200529004442 25 283 6.4 16.1 0.00 0.10 0.08 64 1015.4
20200529004402 25 271 4.8 11.3 0.00 0.10 0.08 64 1015.2
20200529004250 25 258 4.8 9.7 0.00 0.10 0.08 64 1015.2
20200529004138 25 274 6.4 9.7 0.00 0.10 0.08 63 1015.1
20200529004046 25 274 6.4 9.7 0.00 0.10 0.08 63 1015.1
20200529003935 25 274 6.4 9.7 0.00 0.10 0.08 63 1015.1
20200529003856 25 275 4.8 9.7 0.00 0.10 0.08 63 1015.0
20200529003741 25 275 3.2 9.7 0.00 0.10 0.08 63 1015.1
20200529003650 25 275 3.2 6.4 0.00 0.10 0.08 63 1015.1
20200529003536 25 275 3.2 6.4 0.00 0.10 0.08 63 1015.1
20200529003447 25 276 4.8 6.4 0.00 0.10 0.08 62 1015.0
20200529003406 25 276 4.8 6.4 0.00 0.10 0.08 62 1015.0
20200529003254 25 276 3.2 6.4 0.00 0.10 0.08 63 1015.0
20200529003140 25 277 1.6 6.4 0.00 0.10 0.08 63 1015.0
20200529003048 25 277 3.2 6.4 0.00 0.10 0.08 62 1015.0
20200529002932 25 276 3.2 6.4 0.00 0.10 0.08 62 1015.0
20200529002853 25 278 3.2 4.8 0.00 0.10 0.08 62 1015.1
20200529002742 25 278 3.2 4.8 0.00 0.10 0.08 62 1015.1
20200529002649 25 278 3.2 11.3 0.00 0.10 0.08 62 1015.1
20200529002538 25 278 3.2 12.9 0.00 0.10 0.08 62 1015.1
20200529002452 25 278 3.2 12.9 0.00 0.10 0.08 61 1015.1
20200529002411 25 278 3.2 12.9 0.00 0.10 0.08 61 1015.1
20200529002240 25 276 3.2 14.5 0.00 0.10 0.08 61 1015.1
20200529002150 25 275 3.2 14.5 0.00 0.10 0.08 61 1015.1
20200529002033 25 269 3.2 14.5 0.00 0.10 0.08 60 1015.2
20200529001942 25 270 4.8 19.3 0.00 0.10 0.08 60 1015.1
20200529001902 25 269 4.8 19.3 0.00 0.10 0.08 60 1015.2
20200529001750 25 258 6.4 19.3 0.00 0.10 0.08 60 1015.2
20200529001636 25 253 6.4 19.3 0.00 0.10 0.08 59 1015.2
20200529001544 25 267 9.7 19.3 0.00 0.10 0.08 60 1015.2
20200529001432 25 249 8.0 19.3 0.00 0.10 0.08 59 1015.2
20200529001352 25 247 6.4 19.3 0.00 0.10 0.08 59 1015.2
20200529001240 25 251 9.7 19.3 0.00 0.10 0.08 58 1015.1
20200529001147 25 250 11.3 19.3 0.00 0.10 0.08 59 1015.2
20200529001035 26 245 4.8 17.7 0.00 0.10 0.08 59 1015.1
20200529000942 26 249 6.4 19.3 0.00 0.10 0.08 59 1015.2
20200529000901 26 251 6.4 19.3 0.00 0.10 0.08 59 1015.2
20200529000748 26 257 8.0 19.3 0.00 0.10 0.08 58 1015.2
20200529000655 26 247 9.7 19.3 0.00 0.10 0.08 58 1015.1
20200529000538 26 214 8.0 19.3 0.00 0.10 0.08 58 1015.2
20200529000450 26 235 8.0 19.3 0.00 0.10 0.08 58 1015.2
20200529000412 26 227 8.0 19.3 0.00 0.10 0.08 58 1015.2
20200529000237 26 233 12.9 19.3 0.00 0.10 0.08 58 1015.1
20200529000146 26 243 12.9 19.3 0.00 0.10 0.08 57 1015.1
20200529000037 26 230 9.7 17.7 0.00 0.10 0.08 57 1015.1
20200528235939 26 241 9.7 17.7 0.00 0.10 0.08 57 1015.1
20200528235859 26 254 9.7 17.7 0.00 0.10 0.08 57 1015.1
20200528235748 26 264 9.7 17.7 0.00 0.10 0.08 57 1015.1
20200528235636 26 230 11.3 17.7 0.00 0.10 0.08 57 1015.0
20200528235542 26 235 11.3 17.7 0.00 0.10 0.08 57 1014.9
20200528235434 26 203 8.0 16.1 0.00 0.10 0.08 57 1014.9
20200528235355 26 250 6.4 16.1 0.00 0.10 0.08 57 1014.9
20200528235242 26 221 6.4 19.3 0.00 0.10 0.08 57 1014.9
20200528235150 26 241 9.7 19.3 0.00 0.10 0.08 56 1014.9
20200528235039 26 224 11.3 19.3 0.00 0.10 0.08 56 1014.9
20200528234946 26 216 11.3 19.3 0.00 0.10 0.08 57 1014.9
20200528234906 26 220 11.3 19.3 0.00 0.10 0.08 57 1014.9
20200528234734 26 228 9.7 19.3 0.00 0.10 0.08 56 1014.9
20200528234640 26 218 9.7 19.3 0.00 0.10 0.08 57 1014.8
20200528234532 26 242 12.9 19.3 0.00 0.10 0.08 57 1014.8
20200528234441 26 261 12.9 19.3 0.00 0.10 0.08 57 1014.8
20200528234403 26 258 12.9 19.3 0.00 0.10 0.08 57 1014.8
20200528234250 26 231 9.7 17.7 0.00 0.10 0.08 56 1014.8
20200528234140 26 220 8.0 16.1 0.00 0.10 0.08 58 1014.8
20200528234044 26 254 6.4 16.1 0.00 0.10 0.08 58 1014.8